• Join FlightAware (Why Join?)
  • Login
  • US Flag 
06:17AM EDT


 

Airport Tracker/Info


-or-


 

Live Flight TrackerFlight Track Log ✈ UAL3835 ✈ 18-Aug-2013 ✈ CYYZ - KIAD

Flight Track Log - Related Links

Times and Time Zones

All times are in EDT time to prevent confusion due to time zone crossing. See the UAL3835 flight status page for this flight to view local times or setup timezone preferences in your user account.

Time Position Orientation Groundspeed Altitude Reporting Facility
EDT Latitude Longitude Course Direction KTS MPH feet Rate Location/Type
08:25PM 43.6500 -79.6167 224° Southwest 160 184 1,500  Level Toronto Center
08:26PM 43.6000 -79.6833 224° Southwest 200 230 3,600 1,860 Climbing Toronto Center
08:27PM 43.5500 -79.7167 206° Southwest 240 276 5,300 1,500 Climbing Toronto Center
08:28PM 43.5000 -79.6500 136° Southeast 280 322 6,600 1,260 Climbing Toronto Center
08:29PM 43.5000 -79.5333 90° East 270 311 7,900 1,500 Climbing Toronto Center
08:30PM 43.5000 -79.4500 90° East 280 322 9,700 1,380 Climbing Toronto Center
08:31PM 43.4833 -79.3333 101° East 320 368 10,700 1,080 Climbing Toronto Center
08:32PM 43.4667 -79.2000 100° East 350 403 11,900 1,380 Climbing Toronto Center
08:33PM 43.4500 -79.0667 100° East 360 414 13,500 1,500 Climbing Toronto Center
08:34PM 43.4167 -78.9167 107° East 360 414 14,900 1,320 Climbing Toronto Center
08:35PM 43.3667 -78.8000 120° Southeast 360 414 16,200 1,140 Climbing Toronto Center
08:36PM 43.3483 -78.7647 126° Southeast 355 409 16,700 1,020 Climbing Cleveland Center
08:37PM 43.2903 -78.6467 124° Southeast 365 420 17,800 900 Climbing Cleveland Center
08:38PM 43.2297 -78.5231 124° Southeast 378 435 18,600 900 Climbing Cleveland Center
08:39PM 43.1711 -78.4028 124° Southeast 384 442 19,700 1,080 Climbing Cleveland Center
08:40PM 43.1106 -78.2797 124° Southeast 390 449 20,800 1,020 Climbing Cleveland Center
08:41PM 43.0475 -78.1542 124° Southeast 397 457 21,800 1,020 Climbing Cleveland Center
08:42PM 42.9661 -78.0525 138° Southeast 397 457 22,900 1,020 Climbing Cleveland Center
08:43PM 42.8617 -78.0397 175° South 373 429 23,900 960 Climbing Cleveland Center
08:44PM 42.7575 -78.0467 183° South 370 426 24,900 540 Climbing Cleveland Center
08:45PM 42.6450 -78.0511 182° South 388 447 25,000 -540 Climbing Cleveland Center
08:46PM 42.5244 -78.0617 184° South 415 478 23,900 -1,020 Descending Cleveland Center
08:47PM 42.4078 -78.0719 184° South 427 491 23,000 -480 Descending Cleveland Center
08:48PM 42.2869 -78.0767 182° South 432 497 23,000  Level Cleveland Center
08:49PM 42.1642 -78.0872 184° South 438 504 23,000  Level Cleveland Center
08:50PM 42.0456 -78.0917 182° South 438 504 23,000 -540 Level Cleveland Center
08:51PM 41.9250 -78.1019 184° South 438 504 22,000 -1,020 Descending Cleveland Center
08:52PM 41.8144 -78.1064 182° South 446 513 21,000 -360 Descending Cleveland Center
08:54PM 41.5564 -78.1233 183° South 445 512 21,000  Level New York Center
08:55PM 41.4600 -78.1322 184° South 417 480 21,000  Level New York Center
08:56PM 41.3431 -78.1358 181° South 401 461 21,000  Level New York Center
08:57PM 41.2342 -78.1433 183° South 391 450 21,000  Level New York Center
08:58PM 41.1283 -78.1017 163° South 383 441 21,000  Level New York Center
08:59PM 41.0253 -78.0492 159° South 388 447 21,000 -480 Level New York Center
09:00PM 40.9222 -77.9942 158° South 393 452 20,100 -1,440 Descending New York Center
09:01PM 40.8319 -77.9050 143° Southeast 400 460 18,200 -1,080 Descending New York Center
09:02PM 40.7475 -77.8167 142° Southeast 394 453 18,000 -120 Descending New York Center
09:03PM 40.6469 -77.7544 155° Southeast 394 453 18,000  Level New York Center
09:04PM 40.5400 -77.6944 157° South 405 466 18,000  Level New York Center
09:05PM 40.4308 -77.6372 158° South 426 490 18,000  Level New York Center
09:06PM 40.3258 -77.5778 157° South 426 490 18,000 -360 Level New York Center
09:07PM 40.2206 -77.5211 158° South 413 475 17,300 -1,260 Descending New York Center
09:08PM 40.1156 -77.4619 157° South 413 475 15,500 -1,560 Descending New York Center
09:09PM 39.9833 -77.3833 156° South 398 458 13,500 -1,380 Descending Potomac TRACON
09:10PM 39.8833 -77.3500 166° South 391 450 12,100 -1,500 Descending Potomac TRACON
09:11PM 39.7667 -77.3500 180° South 384 442 10,600 -1,140 Descending Potomac TRACON
09:12PM 39.6667 -77.3333 173° South 368 423 9,900 -660 Descending Potomac TRACON
09:13PM 39.5833 -77.3500 189° South 335 386 9,300 -1,140 Descending Potomac TRACON
09:14PM 39.5000 -77.3500 180° South 287 330 7,700 -1,200 Descending Potomac TRACON
09:15PM 39.4333 -77.3667 191° South 277 319 7,000 -900 Descending Potomac TRACON
09:16PM 39.3500 -77.3667 180° South 273 314 5,900 -1,020 Descending Potomac TRACON
09:17PM 39.2667 -77.3667 180° South 268 308 5,100 -960 Descending Potomac TRACON
09:18PM 39.2000 -77.3667 180° South 265 305 4,100 -540 Descending Potomac TRACON
09:19PM 39.1167 -77.3500 171° South 267 307 4,100  Level Potomac TRACON
09:20PM 39.0500 -77.3500 180° South 268 308 4,100 -480 Level Potomac TRACON
09:21PM 38.9833 -77.3667 191° South 263 303 3,200 -540 Descending Potomac TRACON
09:22PM 38.9167 -77.3667 180° South 255 293 3,100 -300 Descending Potomac TRACON
09:23PM 38.8500 -77.3833 191° South 241 277 2,600 -900 Descending Potomac TRACON
09:24PM 38.8833 -77.4333 311° West 175 201 1,400 -1,200 Descending Potomac TRACON